This is the latest recevied weather packets stored in our database for station/object OM7ABC-17. If no packets are shown the sender has not sent any weather packets the latest 10 day(s).
| Time | Temp. | Humidity | Pressure | Rain* | Wind** | Luminosity | Snow |
|---|---|---|---|---|---|---|---|
| 1777608674 | 18.89° C | 25% | 1004.6 hPa | - | - | - | - |
| 1777607773 | 18.89° C | 25% | 1004.6 hPa | - | - | - | - |
| 1777606873 | 18.89° C | 25% | 1004.5 hPa | - | - | - | - |
| 1777605973 | 18.89° C | 25% | 1004.5 hPa | - | - | - | - |
| 1777605073 | 18.89° C | 25% | 1004.6 hPa | - | - | - | - |
| 1777604173 | 18.89° C | 25% | 1004.4 hPa | - | - | - | - |
| 1777603273 | 18.33° C | 25% | 1004.6 hPa | - | - | - | - |
| 1777602373 | 18.33° C | 25% | 1004.7 hPa | - | - | - | - |
| 1777584372 | 21.67° C | 24% | 1004 hPa | - | - | - | - |
| 1777583472 | 21.67° C | 23% | 1003.8 hPa | - | - | - | - |
| 1777582572 | 21.67° C | 24% | 1003.7 hPa | - | - | - | - |
| 1777581672 | 22.22° C | 23% | 1003.7 hPa | - | - | - | - |
| 1777580772 | 22.22° C | 23% | 1003.7 hPa | - | - | - | - |
| 1777579872 | 22.22° C | 23% | 1003.7 hPa | - | - | - | - |
| 1777578072 | 22.22° C | 23% | 1003.5 hPa | - | - | - | - |
| 1777577171 | 22.22° C | 23% | 1003.5 hPa | - | - | - | - |
| 1777573571 | 22.78° C | 23% | 1002.7 hPa | - | - | - | - |
| 1777571771 | 22.78° C | 23% | 1002.4 hPa | - | - | - | - |
| 1777569971 | 22.78° C | 23% | 1002 hPa | - | - | - | - |
| 1777569071 | 22.78° C | 23% | 1001.8 hPa | - | - | - | - |
| 1777567271 | 22.22° C | 23% | 1001.6 hPa | - | - | - | - |
| 1777565471 | 21.67° C | 22% | 1001.4 hPa | - | - | - | - |
| 1777564571 | 21.67° C | 22% | 1001.5 hPa | - | - | - | - |
| 1777562770 | 21.67° C | 22% | 1001.4 hPa | - | - | - | - |
| 1777557370 | 22.22° C | 24% | 1002 hPa | - | - | - | - |
* Rain since midnight (hover to see other rain measurements)
** Current wind speed in m/s (hover to see current wind gust speed)